Location: ???????
(52.3000°N, 54.4667°E)
Time: 13:17:30
(UTC+00:00)

STARLINK-1087 - Pass Details

Date: 24 January 2020
Orbit: 349 x 350 km, 53.0° (Epoch: 16 February)

Event Time Altitude Azimuth Distance (km) Brightness Sun altitude
Rises 14:08:59 0° 264° (W) 2,159 8.6 -11.4°
Reaches altitude 10° 14:11:00 10° 265° (W) 1,317 7.0 -11.7°
Maximum altitude 14:13:56 80° 354° (N) 362 2.6 -12.1°
Enters shadow 14:15:32 24° 78° (ENE) 781 3.8 -12.4°
